Theta_e
312 312 313 314 313 312 310 310 311 312 308 307 311 312 312 312 310 309 309 309 309 308 308 307 305 305 304 303 302 301 300 300 300 299 300 302 302 302 302 303 304 305 307 307
310 310 311 309 309 310 310 310 312 311 306 307 311 310 312 308 309 309 309 309 309 308 308 306 306 305 304 303 302 300 300 300 299 298 300 301 301 301 302 303 304 305 307 307
312 312 308 309 309 310 310 311 311 310 310 310 309 316 309 308 308 308 308 308 308 309 308 308 306 305 305 304 302 300 299 299 298 298 300 301 301 302 302 303 304 304 305 306
310 309 309 309 309 309 311 308 308 309 312 316 310 317 315 309 309 308 308 309 309 308 308 307 306 305 305 303 301 299 298 297 297 298 300 300 300 301 302 302 303 303 304 305
313 309 309 310 310 308 311 308 309 309 312 311 313 310 315 306 309 307 306 308 308 308 308 307 306 304 303 301 300 299 298 297 297 299 299 300 300 301 302 303 302 304 304 306
309 306 307 308 307 307 308 309 308 309 312 326 314 309 318 310 310 307 306 306 307 307 307 306 304 303 302 300 299 299 297 296 297 299 299 300 300 300 302 302 303 304 304 306
308 308 306 306 309 307 308 310 332 334 331 332 308 308 316 310 307 307 307 306 306 306 306 306 305 304 302 301 299 298 296 296 298 300 299 299 299 300 301 302 303 303 303 304
320 321 307 306 309 312 309 311 337 340 331 321 304 313 317 309 307 306 306 306 306 306 306 306 305 304 302 300 299 297 296 297 299 300 299 299 299 299 300 299 299 301 301 304
323 318 304 305 305 306 309 312 307 317 304 316 318 314 312 309 306 306 306 306 307 306 306 306 304 303 301 299 298 296 295 298 299 299 298 298 298 298 299 298 298 299 301 303
320 320 304 304 304 304 306 304 314 318 329 329 325 317 319 310 308 309 307 307 307 306 305 305 304 302 300 299 297 295 295 299 299 297 298 298 298 298 298 298 299 299 302 304
313 325 308 304 308 309 305 308 306 311 313 334 332 323 317 312 309 312 310 308 307 305 306 305 304 301 300 297 296 295 296 299 299 298 298 297 297 297 298 298 299 301 302 304
313 317 314 316 303 302 304 308 309 326 323 311 315 321 311 310 308 307 309 305 305 304 305 304 303 301 299 297 295 295 297 299 298 297 298 296 296 297 298 298 300 302 303 305
308 320 319 318 309 302 305 305 306 308 316 316 329 328 311 309 308 308 308 307 305 305 307 304 302 300 299 298 295 294 297 298 297 298 297 296 296 296 298 299 301 304 305 305
305 314 322 321 324 313 308 308 306 314 324 322 320 329 319 317 313 313 314 310 310 311 308 306 303 300 299 298 295 294 297 298 297 297 296 296 296 296 297 300 302 303 304 305
305 315 311 308 305 307 312 310 307 309 315 325 326 315 317 319 318 312 313 312 310 302 300 302 303 302 299 297 295 294 297 298 297 297 296 296 297 297 298 299 302 303 304 307
303 313 308 311 303 304 309 310 308 307 308 309 310 311 312 313 313 312 309 308 309 310 304 299 301 298 297 296 294 294 296 297 298 297 296 296 297 298 299 300 301 303 304 306
304 310 313 323 303 311 315 308 308 308 309 310 311 315 314 314 312 312 313 313 311 310 308 306 303 297 295 295 294 294 297 297 297 296 297 297 298 298 299 300 301 302 302 304
306 311 316 320 312 322 316 308 309 309 309 307 311 312 315 315 313 311 310 311 310 309 305 302 302 299 295 295 293 295 297 297 297 297 297 297 298 298 299 300 301 302 303 304
304 308 319 316 319 318 317 309 310 310 315 311 308 311 312 311 309 312 311 308 309 305 302 301 301 299 296 295 293 294 296 297 297 297 298 298 299 299 299 300 301 301 303 304
304 306 312 313 317 318 316 314 309 310 318 316 311 311 312 309 315 317 303 303 302 301 299 299 298 298 296 294 292 294 296 296 296 297 298 298 299 299 300 300 300 300 301 301
307 309 312 313 318 321 316 311 310 318 321 313 311 312 312 311 313 305 302 301 300 300 298 297 297 296 295 293 292 294 295 296 297 298 298 298 299 299 299 299 299 300 300 300
312 314 316 315 319 319 307 308 316 317 307 309 309 310 310 310 304 303 301 300 299 298 296 296 296 295 293 292 292 293 294 297 298 298 298 297 297 298 298 299 299 300 300 299
313 313 316 315 317 311 307 312 310 309 309 305 308 307 309 305 304 302 301 299 299 298 295 295 295 293 292 292 292 293 294 296 297 296 296 296 297 297 298 299 299 299 299 299
305 305 311 314 313 309 307 309 306 306 306 306 307 307 308 305 304 302 301 300 298 297 293 293 292 291 290 291 291 294 294 295 296 295 295 295 295 295 296 296 297 297 297 296
311 305 310 312 309 308 308 309 307 306 302 302 303 304 305 305 304 303 300 298 297 295 293 292 292 291 291 291 291 292 293 294 295 295 294 293 294 294 294 295 295 295 295 295
309 311 311 314 312 312 313 310 307 305 303 302 301 300 300 302 303 300 298 297 295 294 292 291 291 291 291 292 292 291 292 293 294 293 292 292 291 290 290 291 291 290 290 289
Wind_Speed
3 6 9 8 6 5 5 6 9 8 4 4 10 17 16 15 9 9 11 13 13 10 5 6 5 4 3 2 2 3 3 4 6 7 8 8 8 8 5 6 5 6 5 6
4 9 2 3 2 3 4 6 9 5 1 3 12 22 18 2 2 2 4 3 8 9 8 8 7 5 4 3 3 3 3 4 5 6 7 6 10 7 6 5 6 5 4 6
9 2 3 3 4 5 6 6 5 4 9 6 11 11 5 4 3 2 3 1 5 8 9 8 7 6 4 3 3 3 2 3 4 6 6 6 7 5 5 6 6 6 6 6
6 4 4 4 6 5 7 2 1 3 6 4 5 7 5 6 5 5 5 7 7 8 6 5 4 4 3 1 2 2 1 3 3 5 5 5 5 6 4 6 7 7 7 5
3 6 5 6 1 3 3 1 1 2 2 4 5 4 2 5 7 8 6 5 5 6 6 5 3 2 2 3 2 1 1 2 2 3 4 4 4 5 6 6 7 5 6 4
3 1 1 2 4 2 7 2 1 1 0 1 4 2 6 4 5 9 7 6 5 6 5 3 3 3 4 4 3 1 1 1 2 3 4 4 5 6 6 6 6 6 6 4
2 4 2 3 4 3 3 4 3 3 2 2 4 3 11 3 5 5 8 7 6 5 5 5 5 5 4 4 3 1 1 0 1 2 3 4 6 7 8 7 6 7 7 5
8 5 9 9 3 2 8 3 3 4 2 2 3 5 2 1 2 4 3 4 4 5 5 5 4 4 4 5 4 2 1 0 1 3 4 4 6 6 7 7 6 6 8 8
6 2 3 0 1 1 4 5 2 6 1 2 3 5 10 5 6 7 7 7 8 7 6 6 5 5 5 5 5 3 2 1 2 3 4 5 5 6 7 9 9 9 8 9
5 3 1 2 2 1 3 1 3 0 3 4 3 5 6 4 10 10 10 9 8 5 5 5 5 5 5 5 6 4 3 2 3 3 4 5 6 6 7 8 9 9 10 10
4 1 2 2 8 9 5 4 2 1 1 3 3 3 2 1 8 11 9 7 6 5 5 4 5 6 6 6 6 5 4 2 3 3 4 5 5 7 7 6 8 9 11 10
7 4 4 3 1 2 4 3 7 3 5 1 1 6 2 2 2 2 5 5 5 4 4 4 5 8 8 7 7 6 5 3 3 4 5 5 5 6 7 8 9 10 10 8
9 4 4 1 1 0 6 7 5 3 2 6 5 4 1 2 4 7 8 7 6 6 6 5 5 8 9 8 8 8 7 5 3 4 5 5 6 5 7 8 10 11 10 7
2 3 5 10 1 7 7 10 14 5 3 6 8 3 4 5 6 5 5 4 5 5 4 6 6 7 9 10 9 9 8 7 5 5 6 6 6 6 7 9 10 10 10 10
3 3 3 2 2 4 3 10 20 13 9 7 4 11 10 7 8 6 5 4 5 6 6 7 5 5 11 12 11 10 9 8 6 7 7 7 7 6 7 8 8 10 12 17
3 1 1 3 0 1 5 7 17 16 2 6 1 10 12 11 8 4 6 7 8 8 8 8 7 7 12 17 14 12 11 10 7 8 8 8 8 8 9 8 8 12 15 19
5 5 3 3 1 2 11 13 18 12 7 9 8 16 6 5 9 7 7 7 8 8 6 7 9 9 16 19 18 15 12 11 10 9 9 10 9 11 13 12 13 16 20 22
4 4 3 1 1 10 4 4 20 20 15 18 8 10 6 3 4 7 9 11 9 7 5 5 8 13 17 20 20 17 15 12 12 11 11 10 10 12 14 16 18 19 22 25
6 4 2 5 7 12 4 4 10 12 15 18 21 22 13 1 3 16 11 8 7 4 2 4 12 15 21 20 23 22 17 15 14 13 13 12 10 11 14 18 18 19 21 22
6 1 3 2 9 15 1 11 11 6 10 7 19 19 13 7 5 4 8 6 4 4 4 10 14 19 22 20 24 23 19 18 16 15 15 14 13 11 11 14 16 17 19 21
5 4 10 11 8 6 2 4 16 13 3 8 15 12 10 7 3 5 7 3 3 6 10 10 15 20 21 25 25 20 21 20 20 18 17 16 15 12 10 10 12 13 14 15
12 9 9 6 8 19 5 7 12 5 1 4 6 8 10 5 6 5 6 5 5 8 11 12 16 18 23 28 29 22 20 22 22 21 19 17 15 14 13 12 12 11 11 12
8 11 12 11 7 2 13 6 17 3 6 6 7 7 9 9 7 8 7 7 4 8 12 12 15 21 25 28 27 24 22 23 24 22 20 17 15 14 13 13 13 12 10 10
5 1 8 1 16 5 10 10 4 5 6 6 5 10 11 10 9 8 7 7 5 7 11 15 17 16 20 29 27 26 24 24 25 24 21 19 17 16 14 13 12 11 10 9
10 11 9 14 4 4 5 10 6 8 5 5 6 8 13 9 9 8 7 6 6 10 14 18 18 15 21 28 26 22 25 27 27 25 24 21 18 16 15 12 11 9 8 6
9 8 8 11 7 11 8 13 14 9 11 11 10 7 5 8 9 6 7 7 9 11 16 17 18 18 21 28 27 23 23 27 28 26 26 25 22 18 14 12 9 8 7 7
Wind_Direction
189 225 218 236 239 300 283 276 276 290 90 292 275 286 289 293 301 274 266 250 244 227 174 183 186 166 158 160 192 243 274 303 324 326 326 324 319 313 307 293 289 292 282 280
195 236 60 88 174 241 251 271 278 275 47 296 307 294 294 229 252 283 317 187 191 172 188 188 204 196 209 219 220 241 284 315 329 327 323 321 310 304 303 295 296 289 292 273
230 49 124 195 198 209 235 254 296 291 317 247 303 273 176 170 200 189 213 160 174 183 194 193 200 214 217 221 225 234 285 323 334 330 325 343 318 296 312 310 306 311 314 286
248 125 184 202 234 213 260 84 169 300 339 314 24 294 206 170 188 199 195 211 192 193 211 210 208 214 217 200 168 176 311 321 343 336 326 337 317 312 316 298 298 318 321 290
181 175 168 216 243 191 52 138 69 316 339 321 164 251 184 163 208 186 196 195 204 210 214 205 203 184 132 142 161 176 327 327 336 327 328 341 321 303 301 298 311 316 306 290
74 33 261 36 104 64 126 191 160 156 273 292 119 254 278 182 207 162 175 201 195 198 200 200 169 165 162 147 163 189 297 315 342 341 340 333 310 299 302 316 320 325 315 293
136 178 146 190 152 123 213 232 324 333 14 248 131 239 262 224 148 157 182 194 198 201 215 205 208 202 194 175 175 185 270 301 324 15 352 333 321 314 312 323 325 320 306 288
167 242 182 169 261 211 189 260 193 239 272 354 149 238 262 34 117 159 194 196 206 221 223 226 223 222 187 170 163 176 217 134 346 38 4 339 326 321 314 314 318 311 301 299
163 167 110 114 310 270 174 215 32 104 102 282 230 247 240 179 196 188 207 211 226 228 230 226 205 214 178 167 157 167 171 135 61 40 13 339 334 321 309 311 314 309 304 298
195 112 347 95 240 196 267 134 121 340 168 252 248 270 265 174 211 195 202 212 220 224 226 219 199 203 175 160 147 148 151 119 83 37 25 350 338 321 311 321 321 313 310 302
125 147 114 150 206 182 167 190 209 99 248 222 288 259 91 214 216 194 198 196 195 216 232 228 192 191 177 162 149 147 148 132 90 52 31 9 344 324 317 327 322 318 312 315
173 99 158 186 35 324 312 213 193 199 192 208 8 269 184 142 179 212 187 191 211 226 274 253 189 182 181 173 160 154 149 139 86 52 45 23 351 340 336 333 331 333 334 343
177 189 120 166 196 179 224 198 219 107 89 195 161 251 154 214 212 226 224 228 216 229 276 237 195 189 190 178 168 156 150 141 107 66 58 38 3 2 346 341 351 357 3 25
206 166 200 234 159 137 185 199 191 177 152 168 228 277 229 256 233 217 236 219 235 269 244 235 202 189 187 175 168 156 150 143 132 84 69 64 34 4 359 359 8 17 37 64
254 215 185 169 310 299 214 176 184 192 198 179 228 216 240 243 247 219 224 239 217 231 240 232 215 167 173 168 161 158 156 145 133 97 87 74 70 43 13 13 38 49 70 81
215 235 108 267 161 276 272 210 194 206 340 300 26 273 219 254 256 200 239 238 235 237 219 218 203 165 174 171 163 160 160 151 135 109 101 95 89 73 55 47 58 72 82 85
184 158 130 248 351 271 258 189 189 196 206 199 205 240 160 212 227 226 245 228 232 249 229 189 197 176 177 176 164 162 162 155 137 120 114 106 100 82 81 89 86 82 82 88
191 164 150 170 126 229 282 189 184 192 205 212 260 253 210 223 262 262 251 254 255 243 217 194 179 167 170 173 163 153 156 157 144 132 125 117 115 92 92 95 93 91 90 87
201 178 219 223 209 283 247 159 163 184 236 211 221 246 245 285 309 277 233 232 224 176 154 174 164 158 156 164 163 156 155 156 154 146 139 130 125 106 99 94 91 92 93 91
144 226 235 157 228 237 277 172 192 168 250 206 202 236 240 147 244 247 146 148 155 136 147 160 149 147 148 159 166 160 157 160 164 160 152 143 141 129 111 105 103 101 98 97
175 176 208 218 250 280 260 118 145 177 195 199 190 214 163 191 207 113 122 153 128 117 133 150 157 151 153 160 169 166 165 168 169 164 157 150 147 141 135 123 116 109 103 102
182 187 210 199 230 246 126 133 184 172 7 178 169 172 182 170 137 147 147 150 160 141 139 166 158 148 152 170 173 173 177 172 168 165 163 158 155 152 147 145 136 126 117 109
208 207 210 198 239 132 189 180 218 185 172 196 170 167 180 163 172 163 162 162 163 155 150 170 160 148 163 174 180 177 181 173 169 167 167 166 162 160 155 151 146 143 140 131
230 67 231 98 229 202 195 221 278 204 210 176 184 162 176 169 162 156 150 152 158 150 148 168 164 157 159 177 185 186 180 179 175 172 172 172 171 169 166 164 163 163 160 159
213 152 207 246 209 21 285 233 226 211 190 158 148 168 182 158 169 159 158 160 153 161 161 171 176 180 172 178 187 188 184 183 182 180 177 178 181 181 177 179 181 177 176 187
209 201 206 242 169 219 225 219 219 190 200 190 164 154 188 157 158 147 158 158 153 167 165 169 188 180 188 181 186 189 190 190 187 186 184 181 180 184 186 184 179 185 180 174